884 visiteurs
Prévisions de votre ville :
Vigilance : Tous les dép. en vert Mise à jour le 16/09/2019 à 06:06 - Voir la carte

Paris Roissy CDG (95380) le 16/09/2019 à 12:00 Choisir station

22.6°C 33 % O Rafales 19 km/h
Vit. moyenne 6 kmh/h

Relevés météo quotidiens pour la station de :

UTC
S: Synop
M: Metar
Loc T°C
(°C)
Td
(°C)
HR
(%)
Vis
(km)
Néb
(octa)
Vent
(km/h)
Pression
(mb)
Précipitations
(mm)
Temps
              MOY
10 min
DIR RAF 1h MESURE VAR SUR 3h    
S 00 h 02h 26.9 21.0 70 27 - 11 19 1021.3 +0.8/3h 0.0/6h - 0.0/3h -
S 01 h 03h 26.7 20.5 69 28 - 9 17 1021.0 +0.1/3h 0.0/1h -
S 02 h 04h 25.3 20.1 73 27 - 4 6 1020.6 -0.6/3h 0.0/1h -
S 03 h 05h 25.2 19.8 72 26 - 6 7 1020.3 -1.0/3h 0.0/3h -
S 04 h 06h 24.8 19.6 73 25 - 6 13 1020.5 -0.5/3h 0.0/1h -
S 05 h 07h 24.1 19.4 75 17 - 6 9 1020.7 +0.1/3h 0.0/1h -
S 06 h 08h 26.3 20.2 69 28 - 6 11 1021.1 +0.8/3h 0.0/12h - 0.0/3h -
S 07 h 09h 28.9 20.1 59 30 - 6 7 1021.4 +1.0/3h 0.0/1h -
S 08 h 10h 30.5 20.4 55 23 - 4 7 1021.5 +0.9/3h 0.0/1h -
S 09 h 11h 31.6 21.2 54 28 - 9 22 1021.5 +0.5/3h 0.0/3h -
S 10 h 12h 32.3 20.9 51 21 - 9 19 1021.3 -0.1/3h 0.0/1h -
S 11 h 13h 33.1 20.6 48 45 - 13 22 1021.0 -0.4/3h 0.0/1h -
S 12 h 14h 32.9 20.4 48 40 - 7 17 1020.7 -0.8/3h 0.0/6h - 0.0/3h -
S 13 h 15h 34.0 20.7 46 55 - 7 11 1020.2 -1.0/3h 0.0/1h -
S 14 h 16h 33.3 20.5 47 50 - 13 28 1019.9 -1.1/3h 0.0/1h -
S 15 h 17h 33.3 19.8 45 35 - 11 22 1019.7 -0.9/3h 0.0/3h -
S 16 h 18h 32.7 20.3 48 45 - 13 20 1019.1 -1.1/3h 0.0/1h -
S 17 h 19h 32.7 20.6 49 35 - 11 22 1018.7 -1.2/3h 0.0/1h -
S 18 h 20h 31.7 20.3 51 35 - 7 19 1018.7 -1.1/3h 0.0/12h - 0.0/3h -
S 19 h 21h 30.0 20.3 56 45 - 9 15 1018.5 -0.7/3h 0.0/1h -
S 20 h 22h 28.9 21.4 64 29 - 6 13 1018.4 -0.4/3h 0.0/1h -
S 21 h 23h 27.7 21.3 68 25 - 6 7 1018.4 -0.3/3h 0.0/3h -
S 22 h 00h 26.7 21.2 72 24 - 6 9 1018.3 -0.2/3h 0.0/1h -
S 23 h 01h 25.5 22.4 83 19 - 6 11 1018.4 -0.1/3h 0.0/1h -
evolution des temperatures
cumul des precipitations
vent moyen et rafales
pression atmospherique

Un tiret (-) signifie que les données ne sont pas disponibles.

Passez la souris sur les pictos temps pour avoir plus de précisions. Passez les flèches sur l'icône de la direction du vent pour voir la direction précise en degrés.

Les données de l'heure en cours sont disponibles à partir de H+15 minutes.


S signifie station Synop, plus complète qu'une station Metar (M). Il y a +1h de différence entre l'heure UTC et l'heure légale en hiver et +2h en été.

Td est la mesure du point de rosée.

HR est l'humidité relative/p>

Vis est la visibilité

Néb est la nébulosité du ciel (couverture nuageuse) exprimée en octas (de 0/8 à 8/8).

Vent moy 10 min donne le vent moyen sur les 10 minutes qui précèdent le relevé.

Vent raf 1h donne la rafale maximale mesurée dans l'heure qui précède le relevé.


Les données les plus anciennes remontent à avril 2014.

Les données présentées sur cette page proviennent des stations météo officielles. Les relevés sont effectués aux normes en vigueur (anémomètre à 10m de haut, thermomètre sous abri normalisé à 2m du sol...)

Météo 60 décline toute responsabilité en cas d'absence de données, d'erreurs, de mauvaise utilisation ou interprétation et n'est pas habilité à fournir des certificats intempéries.